EW3209 Weather Reports


time (UTC)temp
C
wind
direction
speed
KPH
gust
KPH
rain 1hr
cm
rain 24hr
cm
rain mn
cm
humidity
%
barometer
mb
20190525020809 15 130 0.0 8.0 0.00 0.00 0.00 79 1012.9
20190525020308 15 285 3.2 9.7 0.00 0.00 0.00 79 1012.9
20190525015807 15 307 3.2 11.3 0.00 0.00 0.00 79 1012.9
20190525015307 15 233 4.8 11.3 0.00 0.00 0.00 79 1013.2
20190525014806 15 267 4.8 11.3 0.00 0.00 0.00 78 1013.2
20190525014305 15 265 3.2 11.3 0.00 0.00 0.00 78 1012.9
20190525013805 15 247 4.8 11.3 0.00 0.00 0.00 78 1012.9
20190525013304 15 233 3.2 11.3 0.00 0.00 0.00 78 1012.9
20190525012803 16 231 4.8 11.3 0.00 0.00 0.00 77 1012.9
20190525012302 16 285 4.8 9.7 0.00 0.00 0.00 77 1013.2
20190525011801 16 257 1.6 11.3 0.00 0.00 0.00 77 1013.2
20190525011300 16 330 3.2 11.3 0.00 0.00 0.00 77 1013.2
20190525010800 16 277 1.6 9.7 0.00 0.00 0.00 77 1013.2
20190525010258 16 218 4.8 9.7 0.00 0.00 0.00 76 1013.2
20190525005758 16 220 3.2 9.7 0.00 0.00 0.00 77 1013.2
20190525005257 16 239 4.8 9.7 0.00 0.00 0.00 77 1013.2
20190525004756 16 279 3.2 12.9 0.00 0.00 0.00 77 1013.2
20190525004255 16 276 4.8 12.9 0.00 0.00 0.00 77 1013.2
20190525003754 16 214 3.2 12.9 0.00 0.00 0.00 77 1013.2
20190525003253 16 231 3.2 12.9 0.00 0.00 0.00 77 1013.2
20190525002752 16 263 1.6 19.3 0.00 0.00 0.00 78 1013.2
20190525002251 16 222 6.4 19.3 0.00 0.00 0.00 77 1013.2
20190525001750 16 230 4.8 19.3 0.00 0.00 0.00 76 1013.2
20190525001249 16 325 3.2 17.7 0.00 0.00 0.00 78 1013.2
20190525000748 16 248 4.8 17.7 0.00 0.00 0.00 78 1013.2
20190525000247 16 249 8.0 17.7 0.00 0.00 0.00 77 1013.2
20190524235747 16 267 11.3 17.7 0.00 0.00 0.00 76 1013.2
20190524235246 16 260 9.7 14.5 0.00 0.00 0.00 75 1013.2
20190524234745 17 282 8.0 19.3 0.00 0.00 0.00 75 1013.2
20190524234244 17 314 9.7 19.3 0.00 0.00 0.00 75 1013.5
20190524233743 17 250 8.0 19.3 0.00 0.00 0.00 75 1013.5
20190524233242 17 310 8.0 14.5 0.00 0.00 0.00 76 1013.5
20190524232741 17 270 6.4 19.3 0.00 0.00 0.00 76 1013.5
20190524232240 17 279 6.4 19.3 0.00 0.00 0.00 76 1013.5
20190524231740 16 259 6.4 14.5 0.00 0.00 0.00 76 1013.5
20190524231239 16 259 6.4 14.5 0.00 0.00 0.00 76 1013.5
20190524230738 16 269 8.0 16.1 0.00 0.00 0.00 76 1013.5
20190524230237 16 227 8.0 16.1 0.00 0.00 0.00 76 1013.5
20190524225736 17 278 6.4 16.1 0.00 0.00 0.00 75 1013.5
20190524225235 17 276 6.4 14.5 0.00 0.00 0.00 74 1013.5
20190524224734 17 338 3.2 14.5 0.00 0.00 0.00 75 1013.5
20190524224233 17 295 4.8 14.5 0.00 0.00 0.00 74 1013.5
20190524223733 17 263 8.0 14.5 0.00 0.00 0.00 73 1013.5
20190524223231 17 262 4.8 17.7 0.00 0.00 0.00 73 1013.5
20190524222730 17 253 6.4 19.3 0.00 0.00 0.00 75 1013.5
20190524222229 17 242 6.4 19.3 0.00 0.00 0.00 75 1013.5
20190524221729 18 298 11.3 19.3 0.00 0.00 0.00 73 1013.9
20190524221228 18 279 6.4 16.1 0.00 0.00 0.00 73 1013.9
20190524220727 18 280 9.7 16.1 0.00 0.00 0.00 73 1013.9
20190524220226 18 273 9.7 16.1 0.00 0.00 0.00 72 1013.9
20190524215725 18 335 4.8 16.1 0.00 0.00 0.00 73 1013.9
20190524215224 18 236 6.4 17.7 0.00 0.00 0.00 73 1013.9
20190524214724 18 281 8.0 17.7 0.00 0.00 0.00 74 1013.9
20190524214223 18 314 9.7 16.1 0.00 0.00 0.00 73 1014.2
20190524213722 18 286 6.4 16.1 0.00 0.00 0.00 73 1014.2
20190524213222 18 293 8.0 14.5 0.00 0.00 0.00 72 1014.2
20190524212720 18 324 6.4 14.5 0.00 0.00 0.00 70 1014.2
20190524212220 18 259 4.8 9.7 0.00 0.00 0.00 71 1014.2
20190524211719 18 345 1.6 8.0 0.00 0.00 0.00 71 1014.6
20190524211218 18 334 3.2 9.7 0.00 0.00 0.00 72 1014.6
20190524210717 18 341 0.0 9.7 0.00 0.00 0.00 73 1014.6
20190524210216 18 309 6.4 9.7 0.00 0.00 0.00 71 1014.6
20190524205716 17 233 6.4 9.7 0.00 0.00 0.00 73 1014.6
20190524205215 17 359 1.6 6.4 0.00 0.00 0.00 75 1014.6
20190524204714 17 325 3.2 9.7 0.00 0.00 0.00 74 1014.9
20190524204213 17 320 3.2 11.3 0.00 0.00 0.00 75 1014.9
20190524203712 17 337 4.8 11.3 0.00 0.00 0.00 73 1014.9
20190524203211 17 240 8.0 11.3 0.00 0.00 0.00 73 1014.9
20190524202710 17 278 4.8 11.3 0.00 0.00 0.00 72 1014.9
20190524202209 17 295 3.2 4.8 0.00 0.00 0.00 72 1014.9
20190524201708 17 130 1.6 8.0 0.00 0.00 0.00 73 1014.9
20190524201207 17 207 0.0 11.3 0.00 0.00 0.00 74 1015.2
20190524200706 16 276 3.2 11.3 0.00 0.00 0.00 75 1015.2
20190524200205 16 359 0.0 8.0 0.00 0.00 0.00 75 1015.2
20190524195705 16 359 1.6 9.7 0.00 0.00 0.00 76 1015.2
20190524195204 16 334 4.8 9.7 0.00 0.00 0.00 76 1015.2
20190524194703 16 242 1.6 8.0 0.00 0.00 0.00 77 1015.2
20190524194202 16 231 0.0 8.0 0.00 0.00 0.00 77 1015.6
20190524193702 16 359 0.0 8.0 0.00 0.00 0.00 77 1015.6
20190524193200 16 291 4.8 8.0 0.00 0.00 0.00 77 1015.6
20190524192659 15 237 0.0 4.8 0.00 0.00 0.00 79 1015.6
20190524192158 15 42 1.6 4.8 0.00 0.00 0.00 78 1015.6
20190524191657 15 5 1.6 4.8 0.00 0.00 0.00 78 1015.6
20190524191157 15 4 0.0 6.4 0.00 0.00 0.00 79 1015.9
20190524190655 15 359 0.0 6.4 0.00 0.00 0.00 79 1015.9
20190524190154 15 53 4.8 6.4 0.00 0.00 0.00 79 1015.9
20190524185653 15 359 0.0 0.0 0.00 0.00 0.00 80 1015.9
20190524185152 15 359 0.0 0.0 0.00 0.00 0.00 81 1016.3
20190524184652 14 248 0.0 0.0 0.00 0.00 0.00 81 1016.3
20190524184151 14 226 0.0 0.0 0.00 0.00 0.00 83 1016.3
20190524183650 13 226 0.0 1.6 0.00 0.00 0.00 83 1016.3
20190524183149 13 225 0.0 4.8 0.00 0.00 0.00 83 1016.3
20190524182648 13 258 0.0 6.4 0.00 0.00 0.00 84 1016.3
20190524182147 13 314 1.6 6.4 0.00 0.00 0.00 83 1016.3
20190524181646 13 291 3.2 4.8 0.00 0.00 0.00 83 1016.3
20190524181145 13 262 0.0 6.4 0.00 0.00 0.00 83 1016.6
20190524180644 13 298 1.6 6.4 0.00 0.00 0.00 84 1016.6
20190524180143 13 314 3.2 6.4 0.00 0.00 0.00 83 1016.6
20190524175642 13 359 1.6 6.4 0.00 0.00 0.00 84 1016.6
20190524175141 13 292 0.0 6.4 0.00 0.00 0.00 84 1016.6
20190524174641 13 291 1.6 6.4 0.00 0.00 0.00 84 1016.6
20190524174140 13 282 0.0 6.4 0.00 0.00 0.00 84 1016.3
20190524173639 13 250 3.2 4.8 0.00 0.00 0.00 83 1016.3
20190524173138 13 359 0.0 0.0 0.00 0.00 0.00 84 1016.3
20190524172637 13 279 0.0 0.0 0.00 0.00 0.00 84 1016.3
20190524172136 13 359 0.0 0.0 0.00 0.00 0.00 85 1016.3
20190524171635 13 359 0.0 0.0 0.00 0.00 0.00 85 1016.3
20190524171135 13 359 0.0 0.0 0.00 0.00 0.00 86 1015.9
20190524170634 13 279 0.0 6.4 0.00 0.00 0.00 86 1015.9
20190524170133 13 244 0.0 6.4 0.00 0.00 0.00 86 1016.3
20190524165631 13 268 3.2 6.4 0.00 0.00 0.00 86 1016.3
20190524165130 13 329 3.2 4.8 0.00 0.00 0.00 86 1016.3
20190524164629 13 301 3.2 4.8 0.00 0.00 0.00 86 1016.3
20190524164128 13 305 3.2 4.8 0.00 0.00 0.00 87 1015.9
20190524163627 13 359 0.0 1.6 0.00 0.00 0.00 87 1015.9
20190524163126 13 359 0.0 1.6 0.00 0.00 0.00 86 1015.9
20190524162625 13 359 1.6 1.6 0.00 0.00 0.00 87 1015.9
20190524162124 13 359 0.0 0.0 0.00 0.00 0.00 87 1015.9
20190524161623 13 274 0.0 0.0 0.00 0.00 0.00 87 1015.9
20190524161122 13 359 0.0 0.0 0.00 0.00 0.00 87 1015.9
20190524160621 12 274 0.0 0.0 0.00 0.00 0.00 87 1015.9
20190524160120 12 272 0.0 0.0 0.00 0.00 0.00 87 1015.9
20190524155619 12 279 0.0 1.6 0.00 0.00 0.00 87 1015.9
20190524155118 12 359 0.0 4.8 0.00 0.00 0.00 87 1015.9
20190524154617 12 359 1.6 4.8 0.00 0.00 0.00 87 1015.9
20190524154115 12 254 0.0 4.8 0.00 0.00 0.00 88 1015.9
20190524153615 12 249 0.0 4.8 0.00 0.00 0.00 88 1015.9
20190524153114 12 243 0.0 1.6 0.00 0.00 0.00 88 1015.9
20190524152613 12 243 1.6 1.6 0.00 0.00 0.00 88 1015.6
20190524152112 12 253 0.0 0.0 0.00 0.00 0.00 89 1015.6
20190524151611 12 359 0.0 0.0 0.00 0.00 0.00 89 1015.6
20190524151110 12 245 0.0 1.6 0.00 0.00 0.00 89 1015.6
20190524150609 12 254 0.0 1.6 0.00 0.00 0.00 90 1015.6
20190524150108 12 359 0.0 1.6 0.00 0.00 0.00 90 1015.6
20190524145607 12 256 0.0 0.0 0.00 0.00 0.00 90 1015.6
20190524145106 12 262 0.0 0.0 0.00 0.00 0.00 91 1015.6
20190524144606 12 248 0.0 0.0 0.00 0.00 0.00 91 1015.6
20190524144105 12 258 0.0 0.0 0.00 0.00 0.00 91 1015.6
20190524143604 12 359 0.0 0.0 0.00 0.00 0.00 91 1015.6
20190524143103 12 251 0.0 0.0 0.00 0.00 0.00 91 1015.6
20190524142602 12 250 0.0 0.0 0.00 0.00 0.00 90 1015.6
20190524142101 12 253 0.0 0.0 0.00 0.00 0.00 91 1015.6
20190524141600 12 251 0.0 0.0 0.00 0.00 0.00 90 1015.6
20190524141059 12 260 0.0 0.0 0.00 0.00 0.00 90 1015.6
20190524140558 12 250 0.0 0.0 0.00 0.00 0.00 90 1015.6
20190524140057 12 256 0.0 0.0 0.00 0.00 0.00 90 1015.6
20190524135557 12 256 0.0 0.0 0.00 0.00 0.00 90 1015.6
20190524135056 12 359 0.0 0.0 0.00 0.00 0.00 90 1015.6
20190524134556 12 249 0.0 0.0 0.00 0.00 0.00 90 1015.6
20190524134055 12 257 0.0 0.0 0.00 0.00 0.00 90 1015.6
20190524133554 12 252 0.0 1.6 0.00 0.00 0.00 90 1015.2
20190524133053 12 248 0.0 1.6 0.00 0.00 0.00 89 1015.2
20190524132552 12 253 0.0 0.0 0.00 0.00 0.00 89 1015.2
20190524132051 12 256 0.0 0.0 0.00 0.00 0.00 88 1015.2
20190524131550 12 251 0.0 0.0 0.00 0.00 0.00 88 1015.2
20190524131049 12 254 0.0 0.0 0.00 0.00 0.00 88 1015.2
20190524130548 12 359 0.0 0.0 0.00 0.00 0.00 88 1015.2
20190524130047 12 359 0.0 0.0 0.00 0.00 0.00 88 1015.2
20190524125547 12 359 0.0 0.0 0.00 0.00 0.00 88 1015.2
20190524125046 12 359 0.0 0.0 0.00 0.00 0.00 89 1015.2
20190524124545 12 251 0.0 0.0 0.00 0.00 0.00 89 1015.2
20190524124044 12 258 0.0 1.6 0.00 0.00 0.00 88 1015.2
20190524123543 12 239 0.0 1.6 0.00 0.00 0.00 88 1015.2
20190524123042 12 247 0.0 0.0 0.00 0.00 0.00 89 1014.9
20190524122542 12 250 0.0 0.0 0.00 0.00 0.00 89 1014.9
20190524122041 12 359 0.0 0.0 0.00 0.00 0.00 89 1014.9
20190524121540 12 359 0.0 0.0 0.00 0.00 0.00 88 1014.9
20190524121039 12 359 0.0 0.0 0.00 0.00 0.00 88 1014.9
20190524120538 12 359 0.0 0.0 0.00 0.00 0.00 88 1014.9
20190524120038 12 246 0.0 0.0 0.00 0.00 0.00 88 1014.9
20190524115536 12 238 0.0 0.0 0.00 0.00 0.00 88 1014.9
20190524115036 12 359 0.0 0.0 0.00 0.00 0.00 88 1014.9
20190524114535 12 247 0.0 1.6 0.00 0.00 0.00 88 1014.9
20190524114033 12 240 0.0 1.6 0.00 0.00 0.00 88 1014.9
20190524113532 12 359 1.6 6.4 0.00 0.00 0.00 87 1014.9
20190524113031 12 240 0.0 9.7 0.00 0.00 0.00 87 1014.9
20190524112531 12 246 3.2 9.7 0.00 0.00 0.00 88 1014.9
20190524112030 12 247 3.2 4.8 0.00 0.00 0.00 88 1014.9
20190524111529 12 343 3.2 4.8 0.00 0.00 0.00 88 1014.9
20190524111028 12 258 4.8 4.8 0.00 0.00 0.00 88 1014.9
20190524110527 12 251 1.6 3.2 0.00 0.00 0.00 88 1014.9
20190524110025 12 273 1.6 3.2 0.00 0.00 0.00 88 1014.9
20190524105525 12 359 0.0 1.6 0.00 0.00 0.00 88 1014.9
20190524105024 12 359 1.6 1.6 0.00 0.00 0.00 89 1015.2
20190524104523 12 236 0.0 4.8 0.00 0.00 0.00 89 1015.2
20190524104022 12 226 1.6 4.8 0.00 0.00 0.00 89 1015.2
20190524103522 12 359 4.8 4.8 0.00 0.00 0.00 89 1014.9
20190524103021 12 359 3.2 11.3 0.00 0.00 0.00 89 1014.9
20190524102520 12 270 1.6 11.3 0.00 0.00 0.00 89 1014.9
20190524102019 12 267 4.8 8.0 0.00 0.00 0.00 89 1014.9
20190524101518 12 261 1.6 8.0 0.00 0.00 0.00 89 1015.2
20190524101017 12 314 3.2 8.0 0.00 0.00 0.00 89 1015.2
20190524100517 12 294 3.2 8.0 0.00 0.00 0.00 89 1015.2
20190524100016 12 239 0.0 0.0 0.00 0.00 0.00 90 1015.2
20190524095515 12 236 0.0 3.2 0.00 0.00 0.00 90 1015.2
20190524095014 12 245 0.0 6.4 0.00 0.00 0.00 90 1015.2
20190524094513 12 359 1.6 6.4 0.00 0.00 0.00 90 1015.2
20190524094011 12 359 0.0 0.0 0.00 0.00 0.00 90 1014.9
20190524093510 12 359 0.0 0.0 0.00 0.00 0.00 90 1014.9
20190524093009 12 359 0.0 3.2 0.00 0.00 0.00 90 1014.9
20190524092509 12 233 0.0 3.2 0.00 0.00 0.00 90 1014.9
20190524092007 12 246 0.0 0.0 0.00 0.00 0.00 90 1015.2
20190524091507 12 359 0.0 3.2 0.00 0.00 0.00 90 1015.2
20190524091006 12 359 0.0 3.2 0.00 0.00 0.00 90 1014.9
20190524090505 12 274 3.2 3.2 0.00 0.00 0.00 90 1014.9
20190524090004 12 284 3.2 3.2 0.00 0.00 0.00 90 1014.9
20190524085504 12 235 1.6 4.8 0.00 0.00 0.00 90 1014.9
20190524085003 12 359 0.0 4.8 0.00 0.00 0.00 90 1014.9
20190524084502 12 359 3.2 3.2 0.00 0.00 0.00 89 1014.9
20190524084000 12 243 0.0 3.2 0.00 0.00 0.00 89 1014.9
20190524083500 12 272 1.6 4.8 0.00 0.00 0.00 89 1014.9
20190524082958 12 359 0.0 6.4 0.00 0.00 0.00 90 1014.9
20190524082457 12 359 0.0 6.4 0.00 0.00 0.00 90 1014.9
20190524081956 12 304 3.2 8.0 0.00 0.00 0.00 90 1014.9
20190524081455 12 270 3.2 8.0 0.00 0.00 0.00 89 1014.9
20190524080955 12 237 4.8 8.0 0.00 0.00 0.00 90 1014.9
20190524080454 12 237 1.6 6.4 0.00 0.00 0.00 90 1014.6
20190524075952 12 292 3.2 6.4 0.00 0.00 0.00 90 1014.6
20190524075452 12 340 3.2 6.4 0.00 0.00 0.00 90 1014.9
20190524074951 12 276 4.8 6.4 0.00 0.00 0.00 90 1014.9
20190524074450 12 359 0.0 3.2 0.00 0.00 0.00 90 1014.9
20190524073949 12 359 0.0 9.7 0.00 0.00 0.00 90 1014.9
20190524073448 12 287 1.6 9.7 0.00 0.00 0.00 90 1014.9
20190524072947 12 243 1.6 9.7 0.00 0.00 0.00 90 1014.9
20190524072446 12 307 4.8 12.9 0.00 0.00 0.00 90 1014.9
20190524071945 12 269 4.8 12.9 0.00 0.00 0.00 89 1014.6
20190524071444 12 292 1.6 9.7 0.00 0.00 0.00 90 1014.6
20190524070943 12 261 6.4 9.7 0.00 0.00 0.00 90 1014.6
20190524070442 12 272 3.2 8.0 0.00 0.00 0.00 90 1014.6
20190524065941 12 329 3.2 11.3 0.00 0.00 0.00 90 1014.2
20190524065440 12 330 4.8 11.3 0.00 0.00 0.00 90 1014.2
20190524064940 12 257 3.2 8.0 0.00 0.00 0.00 90 1014.2
20190524064439 12 359 0.0 3.2 0.00 0.00 0.00 90 1014.2
20190524063938 12 245 1.6 4.8 0.00 0.00 0.00 90 1014.2
20190524063437 12 302 3.2 8.0 0.00 0.00 0.00 90 1014.2
20190524062937 12 248 3.2 8.0 0.00 0.00 0.00 90 1014.2
20190524062435 12 258 3.2 6.4 0.00 0.00 0.00 90 1014.2
20190524061935 12 259 3.2 6.4 0.00 0.00 0.00 90 1013.9
20190524061434 12 310 3.2 4.8 0.00 0.00 0.00 90 1013.9
20190524060933 12 237 0.0 3.2 0.00 0.00 0.00 90 1013.9
20190524060432 12 218 1.6 4.8 0.00 0.00 0.00 90 1013.9
20190524055931 12 283 3.2 8.0 0.00 0.00 0.00 90 1013.9
20190524055430 12 320 4.8 8.0 0.00 0.00 0.00 90 1013.9
20190524054930 12 322 1.6 4.8 0.00 0.00 0.00 89 1013.5
20190524054429 12 221 3.2 4.8 0.00 0.00 0.00 89 1013.5
20190524053928 12 231 0.0 0.0 0.00 0.00 0.00 89 1013.5
20190524053427 12 359 0.0 0.0 0.00 0.00 0.00 89 1013.5
20190524052926 12 224 0.0 0.0 0.00 0.00 0.00 88 1013.2
20190524052425 12 359 0.0 4.8 0.00 0.00 0.00 88 1013.2
20190524051925 12 233 0.0 4.8 0.00 0.00 0.00 88 1013.2
20190524051424 12 235 1.6 3.2 0.00 0.00 0.00 88 1013.2
20190524050923 12 212 0.0 6.4 0.00 0.00 0.00 88 1013.2
20190524050422 12 359 0.0 6.4 0.00 0.00 0.00 88 1013.2
20190524045921 12 235 3.2 4.8 0.00 0.00 0.00 87 1012.9
20190524045420 12 359 0.0 0.0 0.00 0.00 0.00 87 1012.9
20190524044919 13 210 0.0 0.0 0.00 0.00 0.00 87 1012.9
20190524044419 13 224 0.0 0.0 0.00 0.00 0.00 87 1012.5
20190524043917 13 218 0.0 4.8 0.00 0.00 0.00 87 1012.2
20190524043417 13 224 0.0 8.0 0.00 0.00 0.00 86 1012.2
20190524042916 13 233 1.6 9.7 0.00 0.00 0.00 86 1012.2
20190524042414 13 238 3.2 9.7 0.00 0.00 0.00 86 1012.2
20190524041914 13 239 0.0 12.9 0.00 0.00 0.00 85 1012.2
20190524041412 13 227 4.8 12.9 0.00 0.00 0.00 84 1011.9
20190524040911 13 279 4.8 12.9 0.00 0.00 0.00 84 1011.9
20190524040411 13 307 4.8 11.3 0.00 0.00 0.00 83 1011.9
20190524035910 14 259 4.8 11.3 0.00 0.00 0.00 82 1011.9
20190524035409 14 234 3.2 9.7 0.00 0.00 0.00 81 1011.5
20190524034908 15 246 3.2 8.0 0.00 0.00 0.00 80 1011.5
20190524034407 15 302 3.2 8.0 0.00 0.00 0.00 79 1011.5
20190524033906 15 226 3.2 3.2 0.00 0.00 0.00 79 1011.2
20190524033405 15 170 0.0 0.0 0.00 0.00 0.00 78 1011.2
20190524032904 15 359 0.0 0.0 0.00 0.00 0.00 78 1011.2
20190524032404 15 120 0.0 0.0 0.00 0.00 0.00 77 1011.2
20190524031902 16 359 0.0 0.0 0.00 0.00 0.00 76 1011.2
20190524031401 16 223 0.0 9.7 0.00 0.00 0.00 75 1010.8
20190524030900 16 216 0.0 12.9 0.00 0.00 0.00 74 1010.8
20190524030359 16 268 6.4 12.9 0.00 0.00 0.00 73 1010.5
20190524025859 17 277 6.4 8.0 0.00 0.00 0.00 72 1010.5
20190524025358 17 243 0.0 3.2 0.00 0.00 0.00 71 1010.5
20190524024857 18 245 1.6 8.0 0.00 0.00 0.00 70 1010.2
20190524024355 18 199 4.8 8.0 0.00 0.00 0.00 68 1010.2
20190524023854 18 231 4.8 8.0 0.00 0.00 0.00 66 1010.2
20190524023353 19 359 1.6 4.8 0.00 0.00 0.00 65 1010.2
20190524022852 20 208 0.0 4.8 0.00 0.00 0.00 64 1010.2
20190524022351 20 222 0.0 1.6 0.00 0.00 0.00 63 1009.8
20190524021850 20 93 0.0 1.6 0.00 0.00 0.00 63 1009.8
20190524021349 21 359 0.0 3.2 0.00 0.00 0.00 61 1009.8